When you browse on this site, cookies collect data to enhance your experience and personalize the content and advertising you see.
Visit our Privacy Policy to learn more. By continuing to use the site, you agree to this use of cookies and data.
  • In Hungary
  • List of Countries
  • For 7 days
  • Water Temperature
  • Satellite Maps
  • Weather Map
  • News
  • Weather Widgets
  • user-avatar
    Login

    Hourly Weather Volchikha

    Today, 21 January, Monday

    Time Temperature Precipitation Wind Pressure Humidity
    00:00 -10°C° 0 mm 3 mps 744 mmHg 80%
    01:00 -12°C° 0 mm 3 mps 743 mmHg 79%
    02:00 -12°C° 0 mm 3 mps 743 mmHg 78%
    03:00 -12°C° 0 mm 3 mps 743 mmHg 76%
    04:00 -10°C° 0 mm 3 mps 743 mmHg 75%
    05:00 -11°C° 0 mm 4 mps 742 mmHg 73%
    06:00 -10°C° 0 mm 4 mps 742 mmHg 72%
    07:00 -11°C° 0 mm 5 mps 742 mmHg 71%
    08:00 -10°C° 0 mm 5 mps 742 mmHg 70%
    09:00 -8°C° 0 mm 5 mps 742 mmHg 71%
    10:00 -9°C° 0 mm 6 mps 742 mmHg 73%
    11:00 -8°C° 0 mm 6 mps 742 mmHg 75%
    12:00 -8°C° 0 mm 6 mps 742 mmHg 77%
    13:00 -8°C° 0 mm 6 mps 742 mmHg 80%
    14:00 -8°C° 0 mm 6 mps 742 mmHg 82%
    15:00 -6°C° 0.1 mm 6 mps 742 mmHg 85%
    16:00 -6°C° 0.1 mm 6 mps 743 mmHg 89%
    17:00 -5°C° 0.1 mm 6 mps 744 mmHg 92%
    18:00 -5°C° 0.3 mm 5 mps 744 mmHg 92%
    19:00 -4°C° 0.3 mm 5 mps 744 mmHg 93%
    20:00 -4°C° 0.3 mm 5 mps 745 mmHg 93%
    21:00 -4°C° 0.3 mm 5 mps 745 mmHg 93%
    22:00 -4°C° 0.3 mm 5 mps 746 mmHg 94%
    23:00 -3°C° 0.3 mm 4 mps 746 mmHg 94%

    Tomorrow, 22 January, Tuesday

    Time Temperature Precipitation Wind Pressure Humidity
    00:00 -3°C° 0.3 mm 4 mps 747 mmHg 94%
    01:00 -4°C° 0.3 mm 4 mps 747 mmHg 95%
    02:00 -4°C° 0.3 mm 4 mps 748 mmHg 95%
    03:00 -5°C° 0.1 mm 4 mps 748 mmHg 95%
    04:00 -7°C° 0.1 mm 3 mps 749 mmHg 95%
    05:00 -8°C° 0.1 mm 3 mps 750 mmHg 94%
    06:00 -10°C° 0 mm 3 mps 750 mmHg 95%
    07:00 -12°C° 0 mm 2 mps 751 mmHg 96%
    08:00 -14°C° 0 mm 2 mps 751 mmHg 97%
    09:00 -13°C° 0 mm 2 mps 752 mmHg 96%
    10:00 -10°C° 0 mm 1 mps 752 mmHg 95%
    11:00 -9°C° 0 mm 1 mps 753 mmHg 95%
    12:00 -8°C° 0 mm 1 mps 753 mmHg 94%
    13:00 -8°C° 0 mm 1 mps 753 mmHg 94%
    14:00 -7°C° 0 mm 1 mps 753 mmHg 93%
    15:00 -8°C° 0 mm 1 mps 753 mmHg 93%
    16:00 -8°C° 0 mm 1 mps 753 mmHg 94%
    17:00 -9°C° 0 mm 1 mps 753 mmHg 94%
    18:00 -10°C° 0 mm 1 mps 753 mmHg 95%
    19:00 -11°C° 0 mm 1 mps 753 mmHg 95%
    20:00 -11°C° 0 mm 1 mps 752 mmHg 96%
    21:00 -12°C° 0 mm 1 mps 752 mmHg 96%
    22:00 -13°C° 0 mm 1 mps 752 mmHg 96%
    23:00 -13°C° 0 mm 1 mps 752 mmHg 97%

    Day after tomorrow, 23 January, Wednesday

    Time Temperature Precipitation Wind Pressure Humidity
    00:00 -14°C° 0 mm 1 mps 752 mmHg 96%
    01:00 -16°C° 0 mm 2 mps 751 mmHg 96%
    02:00 -16°C° 0 mm 2 mps 751 mmHg 95%
    03:00 -16°C° 0 mm 2 mps 751 mmHg 95%
    04:00 -16°C° 0 mm 2 mps 751 mmHg 95%
    05:00 -16°C° 0 mm 2 mps 750 mmHg 95%
    06:00 -16°C° 0 mm 2 mps 750 mmHg 95%
    07:00 -16°C° 0 mm 2 mps 750 mmHg 96%
    08:00 -16°C° 0 mm 2 mps 750 mmHg 96%
    09:00 -15°C° 0 mm 2 mps 750 mmHg 96%
    10:00 -13°C° 0 mm 2 mps 750 mmHg 95%
    11:00 -12°C° 0 mm 2 mps 750 mmHg 95%
    12:00 -10°C° 0 mm 2 mps 750 mmHg 95%
    13:00 -8°C° 0 mm 1 mps 750 mmHg 94%
    14:00 -8°C° 0 mm 1 mps 750 mmHg 94%
    15:00 -8°C° 0 mm 1 mps 750 mmHg 94%
    16:00 -8°C° 0 mm 1 mps 750 mmHg 95%
    17:00 -8°C° 0 mm 1 mps 750 mmHg 95%
    18:00 -10°C° 0 mm 2 mps 750 mmHg 96%
    19:00 -10°C° 0 mm 2 mps 750 mmHg 96%
    20:00 -10°C° 0 mm 2 mps 749 mmHg 96%
    21:00 -10°C° 0 mm 2 mps 749 mmHg 96%
    22:00 -12°C° 0 mm 2 mps 749 mmHg 97%
    23:00 -12°C° 0 mm 2 mps 749 mmHg 97%

    24 January, Thursday

    Time Temperature Precipitation Wind Pressure Humidity
    00:00 -12°C° 0 mm 2 mps 749 mmHg 97%
    01:00 -12°C° 0 mm 2 mps 749 mmHg 96%
    02:00 -13°C° 0 mm 2 mps 749 mmHg 96%
    03:00 -13°C° 0 mm 2 mps 749 mmHg 96%
    04:00 -14°C° 0 mm 3 mps 749 mmHg 96%
    05:00 -14°C° 0 mm 3 mps 749 mmHg 96%
    06:00 -14°C° 0 mm 3 mps 750 mmHg 96%
    07:00 -15°C° 0 mm 3 mps 750 mmHg 96%
    08:00 -15°C° 0 mm 3 mps 750 mmHg 96%
    09:00 -15°C° 0 mm 3 mps 750 mmHg 95%
    10:00 -16°C° 0 mm 4 mps 750 mmHg 93%
    11:00 -16°C° 0 mm 4 mps 750 mmHg 92%
    12:00 -15°C° 0 mm 4 mps 751 mmHg 91%
    13:00 -14°C° 0 mm 3 mps 751 mmHg 90%
    14:00 -13°C° 0 mm 3 mps 751 mmHg 90%
    15:00 -14°C° 0 mm 3 mps 751 mmHg 91%
    16:00 -15°C° 0 mm 3 mps 751 mmHg 93%
    17:00 -16°C° 0 mm 3 mps 751 mmHg 94%
    18:00 -16°C° 0 mm 3 mps 752 mmHg 94%
    19:00 -16°C° 0 mm 3 mps 752 mmHg 94%
    20:00 -15°C° 0 mm 2 mps 752 mmHg 94%
    21:00 -15°C° 0 mm 2 mps 753 mmHg 94%
    22:00 -15°C° 0 mm 2 mps 753 mmHg 95%
    23:00 -15°C° 0 mm 2 mps 753 mmHg 95%

    25 January, Friday

    Time Temperature Precipitation Wind Pressure Humidity
    00:00 -14°C° 0.1 mm 2 mps 754 mmHg 96%
    01:00 -12°C° 0.1 mm 1 mps 754 mmHg 96%
    02:00 -11°C° 0.1 mm 1 mps 755 mmHg 97%
    03:00 -11°C° 0.1 mm 1 mps 755 mmHg 97%
    04:00 -14°C° 0.1 mm 2 mps 756 mmHg 97%
    05:00 -14°C° 0.1 mm 2 mps 756 mmHg 97%
    06:00 -15°C° 0 mm 2 mps 757 mmHg 98%
    07:00 -16°C° 0 mm 2 mps 757 mmHg 98%
    08:00 -17°C° 0 mm 2 mps 758 mmHg 98%
    09:00 -14°C° 0 mm 1 mps 758 mmHg 96%
    10:00 -13°C° 0 mm 1 mps 758 mmHg 95%
    11:00 -13°C° 0 mm 1 mps 758 mmHg 93%
    12:00 -12°C° 0 mm 1 mps 758 mmHg 92%
    13:00 -12°C° 0 mm 1 mps 758 mmHg 92%
    14:00 -11°C° 0 mm 1 mps 758 mmHg 91%
    15:00 -12°C° 0 mm 1 mps 757 mmHg 92%
    16:00 -14°C° 0 mm 2 mps 757 mmHg 94%
    17:00 -15°C° 0 mm 2 mps 757 mmHg 95%
    18:00 -15°C° 0 mm 2 mps 756 mmHg 96%
    19:00 -17°C° 0 mm 3 mps 756 mmHg 96%
    20:00 -17°C° 0 mm 3 mps 756 mmHg 97%
    21:00 -17°C° 0 mm 3 mps 755 mmHg 96%
    22:00 -17°C° 0 mm 4 mps 754 mmHg 96%
    23:00 -17°C° 0 mm 4 mps 754 mmHg 95%

    26 January, Saturday

    Time Temperature Precipitation Wind Pressure Humidity
    00:00 -17°C° 0 mm 4 mps 753 mmHg 94%
    01:00 -16°C° 0 mm 4 mps 753 mmHg 93%
    02:00 -17°C° 0 mm 5 mps 752 mmHg 92%
    03:00 -17°C° 0 mm 5 mps 752 mmHg 91%
    04:00 -17°C° 0 mm 5 mps 751 mmHg 90%
    05:00 -17°C° 0 mm 5 mps 751 mmHg 89%
    06:00 -15°C° 0 mm 5 mps 751 mmHg 88%
    07:00 -15°C° 0 mm 5 mps 751 mmHg 87%
    08:00 -15°C° 0 mm 5 mps 750 mmHg 87%
    09:00 -15°C° 0 mm 6 mps 750 mmHg 87%
    10:00 -12°C° 0 mm 6 mps 750 mmHg 86%
    11:00 -11°C° 0 mm 6 mps 750 mmHg 86%
    12:00 -10°C° 0 mm 6 mps 750 mmHg 86%
    13:00 -10°C° 0 mm 5 mps 749 mmHg 86%
    14:00 -8°C° 0 mm 5 mps 749 mmHg 85%
    15:00 -10°C° 0 mm 5 mps 749 mmHg 86%
    16:00 -9°C° 0 mm 4 mps 749 mmHg 87%
    17:00 -10°C° 0 mm 4 mps 749 mmHg 89%
    18:00 -10°C° 0 mm 4 mps 749 mmHg 89%
    19:00 -10°C° 0 mm 4 mps 750 mmHg 89%
    20:00 -10°C° 0 mm 4 mps 750 mmHg 90%
    21:00 -10°C° 0 mm 4 mps 749 mmHg 90%
    22:00 -10°C° 0 mm 4 mps 749 mmHg 90%
    23:00 -10°C° 0 mm 4 mps 749 mmHg 90%
    Show more